Hourly Data Report for August 12, 2002

SHERBROOKE A
QUEBEC

45°26'00.000" N
71°41'00.000" W
241.40 m
7028124
71610
YSC

Download Data

Hourly Data (August 2002)
Hourly Data Report for August 12, 2002
TIME
LST
Temp Definition
°C
Dew Point Definition
°C
Rel Hum Definition
%
Precip. Amount Definition
mm

Wind Dir Definition
10's deg

Wind Spd Definition
km/h
Visibility Definition
km
Stn Press Definition
kPa
Hmdx Definition


Wind Chill Definition


Weather Definition


00:00 15.4 14.6 95     0 3.5 98.72      
01:00 13.9 13.7 99     0 1.0 98.74      
02:00 13.9 13.5 97   12 4 0.8 98.74      
03:00 13.8 13.2 96   10 4 3.1 98.75      
04:00 13.3 12.8 97   8 4 3.9 98.76      
05:00 13.6 13.0 96   9 4 3.7 98.78      
06:00 15.8 15.1 96     0 4.8 98.80      
07:00 19.5 16.9 85     0 16.1 98.84     Mostly Cloudy
08:00 22.3 17.1 72   24 6 16.1 98.83 28   Mainly Clear
09:00 24.9 18.0 66   23 9 19.3 98.82 31   Mainly Clear
10:00 26.4 18.1 60   20 13 16.1 98.82 32   Clear
11:00 27.9 18.9 58   20 11 19.3 98.80 35   Clear
12:00 28.9 18.3 53   21 11 24.1 98.78 35   Clear
13:00
14:00 30.0 18.0 49   26 13 24.1 98.73 36   Mainly Clear
15:00 29.7 17.6 48   21 11 24.1 98.74 35   Mainly Clear
16:00 29.6 16.7 46   27 15 24.1 98.71 35   Mainly Clear
17:00 28.9 16.6 47   22 11 15.0 98.66 34    
18:00 27.0 17.1 55   20 4 15.0 98.67 32    
19:00 22.8 17.2 71   18 4 15.0 98.69 28    
20:00 19.2 16.9 87     0 15.0 98.75      
21:00 18.3 16.6 90   10 6 12.9 98.75      
22:00 17.1 16.0 93     0 9.7 98.75      
23:00 17.0 15.5 91   8 4 11.3 98.77      

Notes on Data Quality.

Legend

  • E = Estimated
  • M = Missing
  • NA = Not Available*
  • [empty] = Indicates an unobserved value
Date modified: